Wind_Speed
33 33 33 33 35 39 40 38 39 36 37 41 43 45 49 50 50 51 52 53 54 53 55 58 63 62 63 66 69 73 75 78 82 82 82 82 83 87 88 89 87 88 88 91
36 37 35 35 39 41 42 44 42 43 45 44 47 48 50 51 52 54 53 55 53 55 55 62 66 65 66 67 70 73 77 79 81 82 84 88 92 92 91 87 86 91 93 94
38 40 39 39 41 45 43 48 48 49 50 48 50 52 50 48 53 52 54 56 57 57 60 66 65 65 67 68 71 76 78 79 80 84 87 90 89 87 89 86 91 90 71 61
43 40 41 43 42 45 46 48 52 51 52 55 54 59 54 52 55 56 59 58 62 64 64 65 65 67 67 71 75 77 78 78 81 87 90 89 88 89 87 89 88 62 58 51
44 46 45 46 45 46 49 52 55 56 57 57 51 56 53 55 56 56 56 59 61 63 66 67 66 66 69 73 76 77 78 79 84 89 87 88 88 88 94 92 73 52 45 42
45 47 47 50 49 52 55 55 58 60 59 60 58 59 59 60 62 61 63 63 63 66 67 66 66 68 72 74 74 76 76 80 86 84 85 87 89 92 92 90 56 48 39 39
47 49 51 51 53 55 58 60 64 67 66 62 60 65 60 64 63 64 62 64 66 66 67 67 68 71 71 72 75 74 77 82 83 85 87 85 87 94 97 77 49 44 40 40
53 54 52 53 55 59 62 60 65 70 63 59 62 66 67 63 64 64 64 68 70 69 68 69 71 70 70 72 71 73 80 84 83 84 83 86 92 94 91 58 46 39 40 47
55 57 57 57 58 60 62 65 67 69 63 63 63 64 71 68 66 64 68 71 69 70 69 70 73 69 71 71 72 78 84 84 81 83 83 86 93 94 71 50 50 50 49 43
56 59 58 58 59 60 64 67 70 70 67 68 69 69 73 67 65 65 69 70 69 69 66 70 69 70 70 70 75 82 83 81 82 83 84 90 93 95 56 49 51 56 61 54
60 60 62 63 64 64 68 70 74 70 71 71 76 75 69 67 64 69 70 69 68 65 65 70 68 68 68 71 78 81 80 80 83 85 86 91 90 81 55 55 67 67 64 58
61 64 67 65 69 68 73 73 72 67 67 71 71 79 65 64 64 69 70 69 65 63 68 70 68 68 68 73 79 79 79 80 85 87 89 92 92 75 58 60 64 54 49 47
62 67 70 69 72 74 74 67 61 65 69 71 73 73 67 64 66 67 67 65 63 66 70 70 66 68 70 77 78 75 78 83 85 85 89 92 89 72 59 57 53 49 42 36
63 66 67 73 74 75 69 65 66 66 70 63 72 65 66 61 62 65 66 64 65 69 71 65 64 67 73 77 76 76 77 83 85 85 86 91 87 68 56 57 51 49 44 33
68 70 77 78 76 73 66 69 66 66 62 66 65 66 58 56 63 66 65 65 67 70 67 64 64 70 76 77 74 75 79 84 84 84 88 90 85 65 54 54 51 47 43 36
73 76 79 80 79 69 64 69 61 64 68 67 65 70 50 59 61 62 65 67 70 68 64 63 67 73 76 75 72 75 81 81 81 83 89 90 80 59 50 49 49 54 42 34
76 80 85 80 72 66 68 62 65 66 66 61 63 57 53 57 57 62 66 67 68 65 62 64 69 74 75 73 73 77 81 79 81 86 90 88 75 52 47 47 50 56 41 33
83 80 78 72 63 66 64 65 65 64 62 55 55 50 54 54 58 63 65 68 65 61 61 67 71 73 72 72 73 77 78 79 82 86 91 84 64 50 45 45 50 47 39 30
62 63 66 68 67 71 68 62 59 53 53 46 49 49 59 56 59 63 67 63 60 58 63 69 71 72 71 71 72 73 74 77 84 87 88 79 56 50 42 42 48 43 34 30
59 59 62 64 63 62 60 55 45 45 50 47 54 63 62 58 60 64 63 60 55 59 65 67 70 70 69 71 72 72 74 79 83 86 83 70 51 51 39 39 44 38 31 29
61 63 60 57 63 64 60 52 49 50 54 56 61 59 61 61 63 64 61 55 55 62 65 67 68 71 69 71 70 72 76 81 83 82 75 61 51 50 35 33 35 37 28 22
57 56 54 59 64 64 56 53 54 54 58 60 55 58 60 61 63 60 56 53 56 61 64 65 67 68 68 67 70 73 78 81 81 75 65 53 48 49 33 29 27 29 28 19
59 58 57 60 58 53 55 55 54 61 67 61 57 59 61 63 61 56 53 53 57 60 60 63 65 66 67 68 70 74 80 80 75 67 56 47 47 48 34 26 24 23 28 18
58 55 59 59 55 63 70 69 71 71 62 58 58 59 61 60 56 53 50 53 56 57 59 60 60 62 65 67 71 76 80 78 70 60 49 42 43 46 35 26 19 13 18 17
60 63 59 59 64 66 69 67 68 67 63 58 58 60 60 57 53 50 50 52 53 53 55 57 58 60 62 66 73 77 78 72 64 52 43 36 41 45 34 28 18 12 11 14
69 74 77 80 78 70 74 71 69 68 62 58 57 60 57 52 50 48 48 48 49 51 53 54 57 58 62 69 74 76 73 66 58 47 39 32 36 41 36 27 19 9 9 10
Wind_Direction
321 325 325 325 328 333 333 329 325 328 320 314 311 308 305 308 314 317 319 318 323 323 316 314 311 310 310 310 311 310 308 306 303 301 299 295 293 289 287 291 293 290 284 277
319 317 317 320 323 326 329 324 323 324 316 313 311 311 310 313 313 312 315 316 322 322 316 316 315 313 311 310 310 309 307 305 303 300 300 297 295 297 301 304 301 296 291 286
315 314 314 316 318 318 319 321 321 319 315 314 315 311 311 315 315 318 316 317 320 322 319 318 314 312 311 310 310 309 308 305 304 301 299 299 304 309 308 309 306 303 293 282
312 312 312 313 315 315 315 318 318 317 317 317 320 311 314 316 317 319 321 321 320 318 316 314 315 314 313 312 311 310 308 306 304 304 303 309 312 314 311 309 312 295 291 260
312 312 314 313 314 314 313 317 320 316 315 312 323 314 316 320 321 324 323 322 318 317 317 316 315 314 314 312 312 311 308 306 305 305 312 315 317 315 313 316 310 303 281 260
306 309 312 311 313 315 315 315 317 313 312 311 315 315 317 316 323 324 320 320 318 318 318 315 315 315 314 314 313 309 306 306 305 312 317 318 317 317 317 320 307 305 270 264
303 305 308 309 310 312 317 317 318 315 316 314 313 311 320 319 327 322 320 317 317 318 317 316 316 314 314 312 308 307 307 305 310 317 319 318 318 319 321 315 305 307 267 268
301 301 303 307 310 313 316 316 320 317 312 308 312 313 317 319 322 319 319 317 319 318 316 314 313 313 311 308 309 308 307 308 314 318 320 319 320 324 321 303 296 299 295 264
297 299 302 307 309 312 313 314 318 317 307 306 310 316 316 323 320 320 316 316 316 316 316 313 312 312 308 309 310 309 308 312 317 319 321 319 321 322 317 294 291 292 299 281
295 296 298 300 303 310 313 311 316 314 307 310 309 314 315 321 318 317 314 313 314 314 312 308 310 308 309 310 311 310 313 316 318 321 321 320 325 325 310 301 293 283 289 284
296 297 299 301 303 308 312 311 311 307 308 310 309 311 320 317 318 313 311 311 313 312 308 307 308 307 307 309 312 314 315 317 320 322 321 321 328 327 314 314 312 299 288 278
295 298 299 301 302 306 308 309 309 303 306 303 311 306 317 314 313 308 307 310 312 309 306 305 307 308 307 311 313 316 316 318 323 322 322 325 329 325 316 318 321 308 292 272
293 295 296 299 301 304 306 308 304 307 305 302 306 310 310 312 307 303 306 310 308 305 304 307 308 307 309 311 314 316 315 321 322 323 323 327 329 322 319 321 319 317 316 278
287 290 292 293 297 297 299 300 297 300 297 307 299 307 308 309 301 304 308 307 305 304 304 306 307 308 310 313 316 314 317 320 322 323 323 329 330 321 321 323 318 313 310 304
286 288 291 292 298 299 296 295 299 298 304 300 305 301 313 300 301 304 305 305 303 303 305 307 308 310 310 314 315 316 319 320 322 324 326 329 331 319 321 322 318 316 304 295
288 290 291 295 296 295 291 292 300 299 302 302 302 303 300 300 302 305 301 301 302 303 305 306 308 309 311 314 316 318 318 320 322 326 328 330 330 318 318 321 317 317 305 287
286 287 290 296 296 293 289 300 300 301 302 299 299 304 299 302 305 300 298 300 300 302 304 306 307 309 313 316 317 319 319 321 325 328 329 330 329 317 317 320 319 316 306 289
288 292 292 295 295 291 298 299 300 299 300 295 299 300 301 310 304 298 297 296 300 302 305 305 308 311 315 317 319 318 321 324 326 330 328 330 327 319 316 319 320 317 312 294
287 291 296 298 294 293 297 301 301 297 299 301 301 307 313 309 299 296 295 298 299 301 303 306 309 312 316 316 317 319 322 325 328 330 329 331 326 323 318 321 323 320 318 302
284 287 289 292 292 294 302 303 293 289 298 301 308 313 313 303 295 294 296 297 299 301 303 308 311 314 314 316 318 321 324 328 330 330 330 330 325 326 321 325 335 324 318 306
283 283 285 290 289 290 299 299 287 291 300 306 311 311 308 300 297 295 294 294 298 302 305 309 312 313 314 316 320 322 325 329 330 331 331 327 325 325 320 326 335 337 320 307
287 285 290 290 291 295 294 292 293 294 303 309 309 306 305 300 295 293 291 293 298 303 307 310 313 313 315 318 321 324 327 329 332 331 329 324 324 323 319 317 332 334 331 288
287 284 286 288 291 301 299 300 294 295 303 306 306 302 299 297 294 289 289 296 300 304 308 311 312 314 317 320 321 325 328 331 333 331 325 321 324 327 318 310 328 322 333 295
282 280 281 284 293 304 303 296 299 300 302 303 299 297 295 294 288 286 292 297 302 307 310 311 313 316 318 321 323 326 329 333 333 330 323 319 324 330 324 305 317 312 315 330
283 282 284 285 299 302 300 296 299 298 299 299 295 293 293 289 284 287 294 299 304 309 310 313 315 317 318 320 323 327 331 334 333 328 323 321 325 331 332 314 295 303 280 288
286 285 278 282 294 298 296 293 300 295 294 292 294 293 290 285 284 291 297 302 307 309 311 313 316 317 318 321 325 330 333 333 332 327 322 318 325 331 337 327 292 291 257 261
Height
5830 5827 5821 5817 5813 5808 5803 5801 5796 5795 5788 5781 5776 5772 5765 5762 5758 5754 5751 5746 5741 5735 5728 5721 5714 5706 5699 5691 5682 5674 5664 5654 5645 5638 5629 5620 5613 5603 5594 5584 5577 5569 5561 5556
5823 5818 5815 5811 5805 5801 5797 5791 5789 5786 5778 5774 5767 5763 5757 5754 5749 5745 5741 5735 5729 5722 5713 5705 5698 5691 5683 5675 5666 5657 5647 5635 5623 5614 5605 5591 5580 5572 5560 5557 5547 5532 5522 5513
5816 5810 5807 5803 5798 5792 5791 5784 5779 5774 5767 5764 5757 5750 5749 5747 5740 5735 5728 5721 5714 5706 5697 5691 5683 5676 5668 5661 5651 5639 5627 5616 5605 5591 5582 5571 5558 5550 5539 5529 5515 5497 5482 5477
5806 5803 5799 5795 5791 5785 5780 5777 5772 5766 5757 5748 5748 5734 5736 5732 5726 5721 5715 5708 5701 5693 5685 5676 5668 5660 5651 5642 5633 5622 5609 5597 5585 5569 5557 5543 5534 5525 5516 5503 5487 5471 5460 5457
5796 5790 5788 5784 5782 5776 5771 5766 5758 5751 5745 5735 5739 5724 5723 5719 5713 5707 5698 5691 5684 5676 5668 5658 5651 5643 5635 5626 5616 5604 5592 5578 5565 5551 5535 5524 5514 5502 5489 5475 5461 5451 5443 5443
5785 5780 5778 5772 5770 5765 5760 5756 5750 5739 5732 5723 5720 5712 5711 5703 5697 5691 5682 5675 5667 5660 5654 5644 5636 5627 5618 5607 5598 5588 5575 5564 5548 5534 5521 5506 5492 5479 5465 5453 5443 5435 5431 5431
5775 5770 5767 5763 5759 5754 5749 5742 5734 5725 5718 5709 5704 5695 5695 5689 5683 5677 5669 5661 5654 5646 5637 5628 5619 5611 5604 5596 5584 5573 5562 5548 5533 5518 5504 5490 5476 5461 5445 5431 5427 5422 5420 5418
5758 5756 5755 5752 5748 5741 5736 5731 5725 5710 5706 5699 5694 5685 5683 5678 5673 5662 5653 5643 5637 5630 5620 5612 5605 5598 5589 5579 5569 5558 5545 5532 5519 5505 5491 5474 5459 5443 5427 5414 5410 5407 5407 5406
5749 5745 5741 5738 5735 5731 5723 5720 5714 5700 5691 5684 5681 5677 5661 5663 5654 5647 5636 5628 5621 5613 5603 5594 5587 5579 5570 5562 5552 5540 5529 5516 5502 5488 5476 5461 5444 5426 5408 5400 5394 5391 5389 5389
5738 5732 5731 5727 5724 5721 5715 5707 5701 5691 5674 5668 5665 5662 5651 5652 5641 5635 5624 5616 5609 5602 5595 5584 5576 5565 5555 5546 5537 5523 5509 5496 5484 5471 5457 5443 5428 5408 5391 5385 5380 5373 5368 5368
5721 5720 5717 5713 5709 5706 5702 5694 5688 5678 5667 5656 5643 5648 5647 5635 5628 5619 5611 5605 5599 5590 5580 5570 5562 5551 5542 5533 5521 5507 5493 5481 5469 5454 5441 5426 5408 5389 5377 5368 5359 5347 5339 5337
5706 5702 5698 5698 5693 5691 5687 5681 5674 5662 5658 5643 5640 5622 5632 5622 5615 5603 5595 5590 5584 5576 5565 5555 5546 5537 5528 5518 5505 5493 5479 5465 5451 5437 5423 5407 5389 5372 5360 5350 5335 5321 5314 5310
5697 5688 5683 5685 5681 5678 5672 5667 5658 5650 5644 5636 5624 5618 5612 5607 5597 5589 5583 5577 5570 5561 5549 5540 5532 5522 5513 5504 5492 5479 5466 5452 5439 5425 5411 5395 5373 5356 5345 5334 5323 5311 5303 5294
5684 5680 5676 5671 5671 5665 5663 5656 5647 5639 5627 5626 5610 5608 5600 5595 5581 5574 5569 5563 5555 5544 5534 5526 5518 5508 5499 5489 5477 5465 5452 5437 5425 5413 5397 5379 5360 5341 5330 5320 5312 5303 5295 5289
5665 5663 5658 5658 5653 5646 5644 5635 5633 5622 5617 5602 5605 5589 5596 5577 5568 5561 5553 5546 5538 5528 5519 5512 5503 5494 5485 5476 5465 5451 5436 5422 5409 5398 5381 5363 5345 5327 5317 5307 5299 5292 5286 5282
5649 5643 5638 5639 5634 5629 5626 5620 5620 5609 5600 5585 5581 5581 5576 5567 5556 5550 5541 5533 5524 5515 5506 5497 5489 5480 5470 5461 5450 5435 5423 5410 5396 5382 5364 5346 5330 5314 5303 5295 5287 5279 5273 5270
5631 5626 5620 5614 5612 5607 5604 5611 5602 5596 5589 5575 5568 5568 5563 5553 5546 5535 5526 5518 5509 5501 5495 5485 5476 5467 5457 5447 5433 5421 5408 5395 5381 5365 5347 5331 5315 5302 5291 5281 5273 5263 5257 5254
5614 5609 5600 5595 5591 5585 5594 5589 5584 5577 5576 5560 5556 5552 5545 5541 5533 5523 5513 5503 5496 5488 5481 5472 5463 5454 5442 5432 5420 5406 5391 5378 5364 5349 5330 5313 5298 5288 5279 5269 5260 5247 5241 5237
5598 5590 5584 5574 5569 5566 5579 5574 5561 5556 5564 5554 5543 5538 5531 5522 5513 5506 5496 5490 5482 5475 5466 5458 5449 5440 5430 5418 5406 5394 5381 5367 5350 5334 5315 5299 5285 5277 5268 5259 5249 5236 5228 5224
5579 5576 5570 5562 5553 5549 5561 5556 5547 5540 5541 5539 5532 5524 5515 5505 5497 5488 5481 5474 5468 5460 5452 5443 5433 5423 5414 5403 5392 5380 5367 5353 5337 5320 5302 5286 5275 5266 5258 5250 5240 5228 5221 5216
5559 5555 5553 5545 5536 5538 5545 5539 5531 5527 5524 5522 5516 5508 5499 5490 5483 5474 5467 5460 5453 5446 5439 5428 5418 5410 5400 5390 5379 5367 5353 5338 5322 5305 5288 5275 5265 5258 5249 5243 5234 5226 5219 5215
5542 5537 5536 5531 5523 5522 5529 5522 5518 5514 5508 5503 5497 5489 5482 5474 5467 5460 5453 5447 5441 5434 5425 5415 5405 5395 5385 5377 5367 5355 5340 5325 5310 5293 5279 5268 5259 5250 5242 5237 5231 5224 5218 5215
5524 5525 5519 5518 5514 5515 5511 5506 5501 5498 5491 5485 5479 5473 5466 5458 5452 5446 5440 5434 5428 5420 5411 5403 5394 5383 5373 5364 5354 5342 5327 5313 5298 5284 5271 5261 5253 5243 5234 5230 5225 5221 5217 5213
5510 5507 5503 5497 5508 5499 5495 5490 5483 5478 5474 5468 5462 5457 5450 5443 5437 5432 5426 5420 5414 5407 5399 5391 5382 5372 5362 5352 5341 5329 5315 5300 5287 5275 5264 5255 5247 5238 5228 5222 5220 5217 5215 5212
5501 5493 5493 5487 5489 5480 5477 5471 5465 5460 5457 5451 5445 5441 5435 5429 5425 5419 5414 5408 5401 5395 5388 5380 5371 5362 5353 5343 5330 5318 5304 5290 5278 5266 5256 5249 5241 5232 5222 5215 5214 5212 5210 5210
5487 5482 5472 5469 5469 5460 5458 5454 5448 5445 5439 5433 5431 5425 5420 5416 5411 5406 5402 5396 5389 5383 5376 5369 5361 5352 5342 5331 5318 5305 5292 5280 5269 5259 5250 5245 5237 5229 5218 5212 5206 5207 5205 5205